User: anonymous   Login
Location: Lone Wolf Observatory
(41.0360°N, 89.2260°W)
Time: 00:08:39
(UTC-06:00)
Language:

Cosmos 1378 Rocket - Orbit

View from above orbital plane
View from above orbital plane
View from above satellite
View from above satellite

Ground track
Ground track

The orbit data is extracted from the following two-line orbital elements,

1 13272U 82059B   17052.64667528  .00000121  00000-0  11374-4 0  9992
2 13272  82.5080 247.7264 0019650 136.0190 224.2593 14.84577507874759
Epoch (UTC): 21 February 2017 15:31:12
Eccentricity: 0.0019650
inclination: 82.5080°
perigee height: 601 km
apogee height: 628 km
right ascension of ascending node: 247.7264°
argument of perigee: 136.0190°
revolutions per day: 14.84577507
mean anomaly at epoch: 224.2593°
orbit number at epoch: 87475

The dashed part of the orbit path shows where the satellite is in the earth's shadow,  

DLR